カタログに戻る

STARLINK-31503

運用中通信VLEO
NORAD 59200·PAYLOAD·🇺🇸 United States

打ち上げ Mar 10, 2024 から Cape Canaveral Space Force Station

Loading…

次のパス (今後24時間)

TLE

最新Source: CelesTrak SupGP

元期: Sep 14, 2026, 21:24 UTC

1 59200C 24045Y   26257.89215278  .00002147  00000+0  77767-4 0  2573
2 59200  42.9996 103.9247 0001362 272.9073 265.6358 15.27570606    10

AllMySatでSTARLINK-31503をリアルタイム追跡

Download on the App Store